Printer-friendly version
Follow the MPC on Twitter Follow the MPC on Facebook The MPC blog
Minor Planet Center

MPEC 2008-O33 : 2008 OO

The following Minor Planet Electronic Circular may be linked-to from your own Web pages, but must not otherwise be redistributed electronically.

A form allowing access to any MPEC is at the bottom of this page.


Read MPEC 2008-O32 Read MPEC 2008-O34


M.P.E.C. 2008-O33                                Issued 2008 July 27, 04:02 UT

     The Minor Planet Electronic Circulars contain information on unusual
         minor planets and routine data on comets.  They are published
   on behalf of Commission 20 of the International Astronomical Union by the
          Minor Planet Center, Smithsonian Astrophysical Observatory,
                          Cambridge, MA 02138, U.S.A.

             Prepared using the Tamkin Foundation Computer Network

                              MPC@CFA.HARVARD.EDU
          URL http://www.cfa.harvard.edu/iau/mpc.html  ISSN 1523-6714

                                    2008 OO

Observations:
     K08O00O* C2008 07 26.09211 21 05 58.96 -16 48 34.7          17.9 V EO033J75
     K08O00O  C2008 07 26.10589 21 05 55.63 -16 48 36.2          18.0 V EO033J75
     K08O00O  C2008 07 26.11962 21 05 52.31 -16 48 38.3          17.9 V EO033J75
     K08O00O  C2008 07 26.63761 21 03 54.66 -16 49 46.7                 EO033900
     K08O00O  C2008 07 26.64237 21 03 53.52 -16 49 47.2          18.3 V EO033900
     K08O00O  C2008 07 26.65971 21 03 49.06 -16 49 21.6          18.4 V EO033E12
     K08O00O  C2008 07 26.66024 21 03 48.92 -16 49 21.3          18.3 V EO033E12
     K08O00O  C2008 07 26.66131 21 03 48.70 -16 49 21.3          18.2 V EO033E12
     K08O00O  C2008 07 26.66184 21 03 48.56 -16 49 21.4          18.4 V EO033E12
     K08O00O  C2008 07 26.87114 21 03 03.17 -16 50 15.3          17.8 R EO033B40
     K08O00O  C2008 07 26.88526 21 03 00.08 -16 50 17.8          18.1 R EO033620
     K08O00O  C2008 07 26.88861 21 02 59.10 -16 50 17.3          17.8 R EO033B40
     K08O00O  C2008 07 26.89392 21 02 58.11 -16 50 18.5          18.1 R EO033620
     K08O00O  C2008 07 26.90258 21 02 56.08 -16 50 19.2          17.8 R EO033620
     K08O00O  C2008 07 26.90609 21 02 55.06 -16 50 19.4          18.0 R EO033B40
     K08O00O  C2008 07 26.91149 21 02 54.06 -16 50 20.5          18.2 R EO033620
     K08O00O  C2008 07 26.91936 21 02 52.25 -16 50 21.8          18.2 R EO033620
     K08O00O  C2008 07 26.92843 21 02 50.18 -16 50 23.4          18.1 R EO033620
     K08O00O  C2008 07 26.99561 21 02 34.90 -16 50 32.4          18.5 V EO033J87
     K08O00O  C2008 07 27.00065 21 02 33.75 -16 50 33.2          18.3 V EO033J87
     K08O00O  C2008 07 27.00571 21 02 32.58 -16 50 33.7          18.3 V EO033J87
     K08O00O  C2008 07 27.01058 21 02 31.32 -16 50 37.6          18.1 V EO033J66
     K08O00O  C2008 07 27.01215 21 02 30.99 -16 50 36.4          18.1 V EO033J66
     K08O00O  C2008 07 27.01374 21 02 30.56 -16 50 36.1          17.4 V EO033J66
     K08O00O  C2008 07 27.01532 21 02 30.24 -16 50 37.5          18.1 V EO033J66
     K08O00O  C2008 07 27.02244 21 02 28.66 -16 50 38.2          18.0 V EO033J66
     K08O00O  C2008 07 27.02402 21 02 28.28 -16 50 39.0          18.1 V EO033J66
     K08O00O  C2008 07 27.02564 21 02 27.95 -16 50 38.7          18.0 V EO033J66
     K08O00O  C2008 07 27.02881 21 02 27.18 -16 50 39.1          17.9 V EO033J66
     K08O00O  C2008 07 27.03041 21 02 26.87 -16 50 39.4          18.1 V EO033J66

Observer details:
620 Observatorio Astronomico de Mallorca.  Observers F. Novoselnik, J. Sestan,
    I. Pletikosa, N. Simic, D. Vrbanec, S. Cikota.  0.30-m f/9
    Schmidt-Cassegrain + CCD.
900 Moriyama.  Observer Y. Ikari.  0.26-m f/7.0 reflector + CCD.
B40 Skylive Observatory, Catania.  Observers G. Sostero, J. Piquard,
    D. Bektesevic, A. Galant, E. Guido.  0.3-m f/6.3 reflector + CCD.
E12 Siding Spring Survey.  Observer R. H. McNaught.  Measurers E. C. Beshore,
    A. Boattini, G. J. Garradd, A. R. Gibbs, A. D. Grauer, R. E. Hill,
    R. A. Kowalski, S. M. Larson, R. H. McNaught.  0.5-m Uppsala Schmidt + CCD.
J66 Kinver.  Observer K. Hills.  0.41-m f/6.9 Ritchey-Chretien + CCD.
J75 OAM Observatory, La Sagra.  Observers S. Sanchez, J. Nomen, R. Stoss,
    F. Violat-Bordonau, J. L. Ortiz, N. Morales, J. Rodriguez, A. Cikota,
    S. Cikota.  0.45-m f/2.8 reflector + CCD.
J87 La Canada.  Observer J. Lacruz.  0.40-m Ritchey-Chretien + CCD.

Orbital elements:
2008 OO                                             PHA, Earth MOID = 0.0146 AU
Epoch 2008 May 14.0 TT = JDT 2454600.5                  MPC
M   0.90888              (2000.0)            P               Q
n   0.33974932     Peri.  253.24197     -0.93875545     +0.33614670
a   2.0340595      Node   306.33765     -0.26932017     -0.85294459
e   0.6872360      Incl.    5.39847     -0.21495314     -0.39936315
P   2.90           H   19.5           G   0.15           U   9
Residuals in seconds of arc
080726 J75  0.1+  0.1+    080726 620  0.1+  1.0-    080727 J87  0.1+  0.0
080726 J75  0.0   0.3+    080726 B40  0.0   0.3+    080727 J66  0.5-  0.7-
080726 J75  0.2-  0.2-    080726 620  0.3+  0.4-    080727 J66  0.1-  0.7+
080726 900  0.3+  0.2-    080726 620  0.4-  0.2+    080727 J66  1.0-  1.1+
080726 900  0.0   0.0     080726 B40  0.2-  0.7+    080727 J66  0.4-  0.1-
080726 E12  0.2-  0.4-    080726 620  0.1-  0.2+    080727 J66  0.2+  0.1+
080726 E12  0.4-  0.1-    080726 620  0.1-  0.1+    080727 J66  0.1-  0.5-
080726 E12  0.0   0.1+    080726 620  0.0   0.2-    080727 J66  0.5+  0.0
080726 E12  0.2-  0.0     080726 J87  0.1+  0.0     080727 J66  0.2-  0.0
080726 B40  0.7+  0.3-    080727 J87  0.2+  0.2-    080727 J66  0.6+  0.1-

Ephemeris:
2008 OO                  a,e,i = 2.03, 0.69, 5                   q = 0.6362
Date    TT    R. A. (2000) Decl.     Delta      r     Elong.  Phase     V
2008 07 23    21 19.04   -16 39.3    0.290    1.296   163.4    13.0    18.1
2008 08 02    20 43.74   -16 58.2    0.390    1.405   178.4     1.2    18.4
2008 08 12    20 23.92   -17 00.4    0.509    1.510   164.5    10.3    19.6
2008 08 22    20 13.96   -16 55.8    0.645    1.612   152.6    16.8    20.5
2008 09 01    20 10.56   -16 46.9    0.796    1.710   142.2    21.2    21.2
2008 09 11    20 11.77   -16 33.5    0.961    1.804   132.9    24.1    21.8

Sonia Keys                   (C) Copyright 2008 MPC           M.P.E.C. 2008-O33

Read MPEC 2008-O32 Read MPEC 2008-O34


MPEC number:

Enter an MPEC number in one of the following forms:

  • 1997-B01 (the full form)
  • J97B01 (the packed version of the full form)
  • B01 (the abbreviated form)

Valid HTML 4.01!